Flag for U.S.A. Weather past 2 weeks in Redlands, California, U.S.A.

Now
72 °F

Clear.


Feels Like: 77 °F
Forecast: 71 / 100 °F
Wind: 2 mph from Southwest

Location: Riverside / March Air Force Base

Current Time: Aug 28, 2015 at 5:59:20 AM

Latest Report: Aug 28, 2015 at 4:58 AM


Visibility: 10 mi

Pressure: 29.89 "Hg

Humidity: 52%

Dew point: 54 °F

Location of RedlandsLocation

Historic Weather in Redlands — Graph

°F

Redlands temperature yesterday

Maximum temperature yesterday: 100 °F (at 2:58 PM)
Minimum temperature yesterday: 68 °F (at 5:58 AM)
Average temperature yesterday: 84 °F

Past Weeks' High & Low Weather Summary

 TemperatureHumidityPressure
High105 °F (Aug 15, 2:58 PM)100% (Aug 20, 4:02 AM)29.99 "Hg (Aug 20, 4:02 AM)
Low61 °F (Aug 20, 4:02 AM)7% (Aug 16, 11:58 AM)29.79 "Hg (Aug 16, 4:58 PM)
Average80 °F48%29.89 "Hg
* Reported Aug 13 4:58 AM — Aug 28 4:58 AM, Redlands, Weather by CustomWeather, © 2015

Note: Actual official high and low records may vary slightly from our data, if they occured in-between our weather recording intervals... More about our weather records

Advertising

Redlands weather history for previous 24 hours

 ConditionsComfort  
Time TempWeatherWind HumidityBarometerVisibility
4:58 AM
Fri, Aug 28
72 °FClear.2 mph52%29.89 "Hg10 mi
3:58 AM71 °FClear.No wind55%29.89 "Hg10 mi
2:58 AM72 °FClear.No wind53%29.90 "Hg10 mi
1:58 AM72 °FClear.5 mph54%29.90 "Hg10 mi
12:58 AM74 °FClear.No wind51%29.92 "Hg10 mi
11:58 PM
Thu, Aug 27
77 °FClear.No wind45%29.91 "Hg10 mi
10:58 PM78 °FClear.No wind43%29.93 "Hg10 mi
9:58 PM80 °FClear.2 mph42%29.93 "Hg10 mi
8:58 PM85 °FClear.9 mph33%29.92 "Hg10 mi
7:58 PM87 °FSunny.9 mph30%29.89 "Hg10 mi
6:58 PM91 °FSunny.14 mph30%29.87 "Hg10 mi
5:58 PM95 °FSunny.15 mph20%29.86 "Hg10 mi
4:58 PM98 °FSunny.16 mph19%29.86 "Hg10 mi
3:58 PM100 °FSunny.16 mph20%29.87 "Hg10 mi
2:58 PM100 °FSunny.12 mph19%29.90 "Hg10 mi
1:58 PM100 °FSunny.13 mph19%29.92 "Hg10 mi
12:58 PM98 °FSunny.15 mph21%29.94 "Hg10 mi
11:58 AM97 °FSunny.6 mph21%29.96 "Hg10 mi
10:58 AM93 °FSunny.2 mph23%29.98 "Hg10 mi
9:58 AM88 °FSunny.3 mph29%29.99 "Hg10 mi
8:58 AM82 °FSunny.2 mph41%29.99 "Hg10 mi
7:58 AM76 °FSunny.No wind48%29.99 "Hg10 mi
6:58 AM69 °FClear.No wind57%29.98 "Hg10 mi
5:58 AM68 °FClear.No wind60%29.96 "Hg10 mi
Weather by CustomWeather, © 2015

See weather overviewHow to use our weather pages